This demonstration page uses our WeatherBlox Daily Observations layout. Learn more.

Left ArrowRight Arrow

39.08367, -84.50855

Hourly Observations for September 29, 2015

Temp ( °F °C ) Dew Point ( °F °C ) Humidity (%) Winds ( mph kmh ) Pressure ( in mb ) Visibility ( mi km ) Precip ( " mm )
12:53 am 00:53 Mostly Clear 68 20 68 20 100 100 Calm 29.98 1015 10 16 0.00 0.00
1:53 am 01:53 Clear with Light Rain 69 20.6 69 20.6 100 100 Calm 29.97 1015 10 16 0.00 0.03
2:53 am 02:53 Partly Cloudy with Light Rain 68 20 68 20 100 100 Calm 29.95 1014 10 16 0.01 0.25
3:32 am 03:32 Clear with Mist and Fog 68 20 68 20 100 100 Calm 29.91 1013 3 4 0.00 0.00
3:42 am 03:42 Clear with Mist and Fog 66 19 66 19 100 100 Calm 29.91 1013 5 8 0.00 0.00
3:53 am 03:53 Partly Cloudy with Mist and Fog 68 20 68 20 100 100 Calm 29.93 1013 2 3 0.00 0.03
4:00 am 04:00 Mostly Clear with Light Rain 66 19 66 19 100 100 Calm 29.91 1013 2 2 0.00 0.00
4:04 am 04:04 Mostly Clear with Light Rain 66 19 66 19 100 100 Calm 29.91 1013 3 5 0.00 0.00
4:53 am 04:53 Mostly Clear 67 19.4 67 19.4 100 100 Calm 29.91 1013 7 11 0.00 0.03
5:53 am 05:53 Mostly Cloudy 67 19.4 67 19.4 100 100 Calm 29.91 1013 7 11 0.00 0.00
6:09 am 06:09 Partly Cloudy with Mist and Fog 67 19.4 67 19.4 100 100 Calm 29.91 1013 2 3 0.00 0.00
6:20 am 06:20 Mostly Cloudy with Mist and Fog 68 20 68 20 100 100 Calm 29.91 1013 3 5 0.00 0.00
6:53 am 06:53 Mostly Cloudy with Light Rain 68 20 68 20 100 100 Calm 29.92 1013 7 11 0.00 0.03
7:53 am 07:53 Cloudy with Light Rain 68 20 68 20 100 100 Calm 29.93 1014 7 11 0.04 1.02
8:53 am 08:53 Cloudy with Light Rain 69 20.6 69 20.6 100 100 Calm 29.93 1013 4 6 0.04 1.02
9:53 am 09:53 Cloudy with Rain 69 20.6 69 20.6 100 100 NNE 3 6 29.93 1014 4 6 0.07 1.78
10:53 am 10:53 Cloudy with Light Rain 70 21.1 70 21.1 100 100 Calm 29.93 1013 5 8 0.08 2.03
10:57 am 10:57 Cloudy with Light Rain 70 21.1 70 21.1 100 100 Calm 29.91 1013 5 8 0.00 0.03
11:44 am 11:44 Cloudy with Light Rain 72 22 70 21 94 94 ENE 3 6 29.91 1013 7 11 0.00 0.00
11:53 am 11:53 Cloudy with Light Rain 71 21.7 70 21.1 96 96 VRB 3 6 29.92 1013 5 8 0.02 0.51
12:38 pm 12:38 Cloudy with Light Rain 72 22 72 22 100 100 ENE 3 6 29.91 1013 6 10 0.00 0.00
12:53 pm 12:53 Cloudy with Light Rain 71 21.7 71 21.7 100 100 E 5 7 29.91 1013 7 11 0.01 0.25
1:33 pm 13:33 Cloudy with Rain 71 21.7 70 21.1 96 96 NE 7 11 29.91 1013 4 6 0.04 1.02
1:53 pm 13:53 Cloudy with Rain 71 21.7 70 21.1 96 96 ENE 6 9 29.89 1012 3 5 0.11 2.79
2:01 pm 14:01 Cloudy with Heavy Rain 70 21.1 70 21.1 100 100 ENE 7 11 29.91 1013 2 3 0.07 1.78
2:14 pm 14:14 Cloudy with Light Rain 70 21 70 21 100 100 ENE 7 11 29.88 1012 4 6 0.00 0.00
2:53 pm 14:53 Mostly Cloudy with Light Rain 71 21.7 69 20.6 94 94 NE 6 9 29.87 1012 7 11 0.09 2.29
3:44 pm 15:44 Cloudy with Light Rain 72 22 70 21 94 94 N 6 9 29.88 1012 6 10 0.00 0.00
3:53 pm 15:53 Cloudy with Rain 71 21.7 69 20.6 94 94 N 7 11 29.86 1011 6 10 0.03 0.76
4:36 pm 16:36 Cloudy with Rain 70 21 70 21 100 100 N 7 11 29.85 1011 2 3 0.00 0.00
4:53 pm 16:53 Cloudy with Rain 70 21.1 69 20.6 97 97 N 6 9 29.85 1011 4 6 0.16 4.06
5:53 pm 17:53 Cloudy with Light Rain 69 20.6 68 20 96 96 N 7 11 29.86 1011 9 14 0.02 0.51
6:53 pm 18:53 Mostly Cloudy with Light Rain 69 20.6 68 20 96 96 N 8 13 29.85 1011 10 16 0.02 0.51
7:53 pm 19:53 Mostly Cloudy 68 20 67 19.4 96 96 NNE 3 6 29.85 1011 9 14 0.00 0.03
8:42 pm 20:42 Mostly Cloudy 70 21 66 19 88 88 N 6 9 29.88 1012 9 14 0.00 0.00
8:53 pm 20:53 Mostly Cloudy 69 20.6 67 19.4 93 93 N 5 7 29.87 1012 10 16 0.00 0.00
9:21 pm 21:21 Cloudy with Light Rain 68 20 67 19.4 96 96 N 8 13 29.88 1012 8 13 0.00 0.03
9:53 pm 21:53 Cloudy with Light Rain 68 20 66 18.9 93 93 N 5 7 29.88 1012 9 14 0.01 0.25
10:53 pm 22:53 Cloudy 67 19.4 65 18.3 93 93 N 5 7 29.88 1012 10 16 0.00 0.03
11:10 pm 23:10 Cloudy 66 19 64 18 94 94 N 3 6 29.91 1013 9 14 0.00 0.00
11:25 pm 23:25 Cloudy 67 19.4 66 18.9 97 97 N 3 6 29.91 1013 8 13 0.00 0.00
11:53 pm 23:53 Cloudy 67 19.4 66 18.9 97 97 NNE 3 6 29.89 1012 7 11 0.00 0.00

Powered by AerisWeather